�������l�o���
Date,Time,MP-1(��Sv/h),MP-2(��Sv/h),MP-3(��Sv/h),MP-4(��Sv/h),MP-5(��Sv/h),MP-6(��Sv/h),MP-7(��Sv/h),MP-8(��Sv/h),����,����(m/s),���J
2017/09/04,00:00,0.934,1.477,0.960,1.765,1.220,0.511,0.937,0.866,��,6.9,��
2017/09/04,00:10,0.934,1.474,0.961,1.762,1.219,0.510,0.937,0.866,��,6.2,��
2017/09/04,00:20,0.933,1.476,0.960,1.763,1.218,0.512,0.939,0.863,���쐼,4.6,��
2017/09/04,00:30,0.934,1.477,0.960,1.763,1.217,0.512,0.938,0.865,���쐼,3.6,��
2017/09/04,00:40,0.932,1.476,0.962,1.761,1.217,0.510,0.937,0.864,���쐼,4.1,��
2017/09/04,00:50,0.932,1.475,0.961,1.764,1.219,0.511,0.938,0.864,��,4.4,��
2017/09/04,01:00,0.932,1.475,0.961,1.762,1.218,0.511,0.939,0.865,��,5.4,��
2017/09/04,01:10,0.935,1.476,0.960,1.762,1.218,0.510,0.938,0.865,���k��,5.5,��
2017/09/04,01:20,0.931,1.476,0.962,1.765,1.217,0.511,0.937,0.867,���k��,6.1,��
2017/09/04,01:30,0.932,1.477,0.962,1.762,1.218,0.510,0.939,0.864,���k��,5.6,��
2017/09/04,01:40,0.932,1.473,0.961,1.764,1.218,0.510,0.939,0.865,���k��,6.2,��
2017/09/04,01:50,0.930,1.474,0.961,1.764,1.216,0.511,0.938,0.863,���k��,5.3,��
2017/09/04,02:00,0.931,1.474,0.959,1.762,1.220,0.511,0.938,0.865,���k��,5.4,��
2017/09/04,02:10,0.930,1.474,0.961,1.765,1.217,0.511,0.937,0.864,���k��,5.1,��
2017/09/04,02:20,0.932,1.475,0.961,1.760,1.218,0.510,0.939,0.864,���k��,5.6,��
2017/09/04,02:30,0.933,1.476,0.960,1.765,1.218,0.509,0.939,0.864,���k��,5.3,��
2017/09/04,02:40,0.932,1.477,0.961,1.762,1.216,0.512,0.938,0.864,���k��,5.2,��
2017/09/04,02:50,0.930,1.475,0.961,1.762,1.215,0.510,0.939,0.864,�k��,5.5,��
2017/09/04,03:00,0.933,1.474,0.960,1.763,1.216,0.511,0.939,0.865,�k��,5.4,��
2017/09/04,03:10,0.931,1.474,0.962,1.764,1.219,0.510,0.938,0.862,���k��,5.5,��
2017/09/04,03:20,0.932,1.476,0.960,1.762,1.217,0.509,0.938,0.865,���k��,3.4,��
2017/09/04,03:30,0.931,1.476,0.960,1.764,1.218,0.510,0.938,0.866,���k��,3.4,��
2017/09/04,03:40,0.929,1.474,0.959,1.763,1.217,0.510,0.937,0.866,�k��,3.5,��
2017/09/04,03:50,0.931,1.476,0.960,1.762,1.216,0.511,0.938,0.866,���k��,3.9,��
2017/09/04,04:00,0.933,1.476,0.960,1.763,1.216,0.509,0.937,0.865,�k��,4.3,��
2017/09/04,04:10,0.932,1.476,0.960,1.764,1.218,0.511,0.938,0.866,�k��,5.5,��
2017/09/04,04:20,0.929,1.476,0.961,1.764,1.218,0.511,0.934,0.865,�k��,6.4,��
2017/09/04,04:30,0.930,1.475,0.959,1.763,1.218,0.510,0.938,0.866,�k��,6.6,��
2017/09/04,04:40,0.932,1.474,0.961,1.763,1.215,0.509,0.937,0.865,���k��,6.2,��
2017/09/04,04:50,0.932,1.474,0.960,1.765,1.216,0.510,0.938,0.864,�k��,6.5,��
2017/09/04,05:00,0.933,1.475,0.963,1.765,1.217,0.509,0.937,0.864,���k��,5.1,��
2017/09/04,05:10,0.930,1.473,0.960,1.764,1.216,0.511,0.937,0.865,��,3.4,��
2017/09/04,05:20,0.931,1.476,0.960,1.764,1.216,0.510,0.937,0.866,���k��,2.9,��
2017/09/04,05:30,0.930,1.476,0.959,1.765,1.214,0.507,0.936,0.864,��,2.5,��
2017/09/04,05:40,0.929,1.474,0.961,1.761,1.216,0.509,0.936,0.865,���k��,2.5,��
2017/09/04,05:50,0.930,1.474,0.962,1.764,1.216,0.510,0.937,0.864,���k��,2.5,��
2017/09/04,06:00,0.931,1.476,0.961,1.766,1.217,0.509,0.938,0.865,�k��,3.6,��
2017/09/04,06:10,0.930,1.475,0.959,1.765,1.215,0.508,0.936,0.868,���k��,3.7,��
2017/09/04,06:20,0.931,1.479,0.962,1.764,1.218,0.512,0.938,0.867,�k��,3.2,��
2017/09/04,06:30,0.930,1.476,0.961,1.765,1.216,0.510,0.937,0.866,�k��,3.0,��
2017/09/04,06:40,0.934,1.476,0.964,1.764,1.215,0.509,0.938,0.865,�k��,3.6,��
2017/09/04,06:50,0.934,1.477,0.962,1.763,1.217,0.510,0.940,0.866,���k��,3.8,��
2017/09/04,07:00,0.933,1.479,0.963,1.765,1.216,0.509,0.937,0.867,��,3.7,��
2017/09/04,07:10,0.933,1.474,0.965,1.763,1.217,0.509,0.940,0.865,���쐼,3.1,��
2017/09/04,07:20,0.935,1.473,0.962,1.765,1.217,0.509,0.938,0.866,��,2.6,��
2017/09/04,07:30,0.935,1.473,0.963,1.765,1.217,0.508,0.940,0.866,���쐼,2.0,��
2017/09/04,07:40,0.934,1.477,0.964,1.766,1.216,0.509,0.939,0.867,���쐼,1.4,��
2017/09/04,07:50,0.936,1.475,0.960,1.766,1.218,0.508,0.942,0.868,���k��,2.6,��
2017/09/04,08:00,0.933,1.470,0.962,1.766,1.218,0.509,0.942,0.868,�k��,2.3,��
2017/09/04,08:10,0.934,1.473,0.961,1.766,1.222,0.509,0.941,0.868,���k��,2.3,��
2017/09/04,08:20,0.936,1.477,0.961,1.770,1.218,0.508,0.939,0.867,���k��,1.9,��
2017/09/04,08:30,0.936,1.476,0.960,1.768,1.218,0.510,0.940,0.865,�k�k��,0.9,��
2017/09/04,08:40,0.937,1.476,0.962,1.770,1.220,0.510,0.938,0.866,��,1.2,��
2017/09/04,08:50,0.933,1.476,0.960,1.770,1.220,0.511,0.938,0.865,-,CALM,��
2017/09/04,09:00,0.936,1.477,0.962,1.768,1.221,0.510,0.937,0.863,�k�k��,1.5,��
2017/09/04,09:10,0.933,1.477,0.962,1.769,1.222,0.509,0.940,0.865,���k��,0.9,��
2017/09/04,09:20,0.936,1.480,0.963,1.768,1.223,0.511,0.939,0.863,�k��,0.8,��
2017/09/04,09:30,0.935,1.479,0.964,1.770,1.221,0.512,0.939,0.863,���쓌,0.9,��
2017/09/04,09:40,0.935,1.478,0.963,1.771,1.218,0.510,0.939,0.864,�쓌,2.2,��
2017/09/04,09:50,0.936,1.479,0.962,1.771,1.222,0.510,0.939,0.864,�쓌,2.2,��
2017/09/04,10:00,0.934,1.480,0.964,1.771,1.221,0.510,0.942,0.864,�쓌,2.6,��
2017/09/04,10:10,0.936,1.478,0.962,1.773,1.224,0.511,0.939,0.865,�쓌,3.6,��
2017/09/04,10:20,0.937,1.483,0.965,1.771,1.223,0.510,0.941,0.866,��쓌,3.6,��
2017/09/04,10:30,0.936,1.480,0.965,1.772,1.222,0.512,0.941,0.865,��쓌,3.7,��
2017/09/04,10:40,0.938,1.481,0.964,1.772,1.224,0.510,0.940,0.865,��쓌,2.5,��
2017/09/04,10:50,0.939,1.481,0.963,1.772,1.224,0.510,0.940,0.863,��쓌,3.1,��
2017/09/04,11:00,0.940,1.487,0.967,1.772,1.226,0.511,0.943,0.866,�쓌,4.3,��
2017/09/04,11:10,0.939,1.483,0.965,1.773,1.223,0.511,0.942,0.864,�쓌,3.7,��
2017/09/04,11:20,0.940,1.481,0.967,1.774,1.227,0.512,0.939,0.865,��쓌,4.8,��
2017/09/04,11:30,0.940,1.486,0.966,1.774,1.226,0.511,0.941,0.865,��쓌,5.1,��
2017/09/04,11:40,0.941,1.486,0.966,1.774,1.224,0.510,0.941,0.866,��쓌,6.2,��
2017/09/04,11:50,0.939,1.488,0.966,1.773,1.228,0.513,0.941,0.865,��쓌,5.2,��
2017/09/04,12:00,0.939,1.488,0.967,1.771,1.228,0.512,0.941,0.865,��쓌,4.7,��
2017/09/04,12:10,0.941,1.486,0.969,1.770,1.228,0.511,0.942,0.866,��쓌,4.7,��
2017/09/04,12:20,0.940,1.486,0.967,1.771,1.227,0.514,0.942,0.866,��쓌,4.4,��
2017/09/04,12:30,0.942,1.489,0.969,1.772,1.230,0.512,0.940,0.866,��쓌,4.4,��
2017/09/04,12:40,0.943,1.491,0.968,1.775,1.226,0.515,0.940,0.866,��쓌,5.3,��
2017/09/04,12:50,0.943,1.494,0.967,1.776,1.230,0.513,0.943,0.866,��쓌,5.1,��
2017/09/04,13:00,0.942,1.493,0.969,1.772,1.231,0.512,0.942,0.868,��쓌,6.4,��
2017/09/04,13:10,0.943,1.492,0.970,1.773,1.231,0.513,0.942,0.867,��쓌,7.0,��
2017/09/04,13:20,0.942,1.491,0.970,1.776,1.232,0.514,0.942,0.867,��쓌,7.0,��
2017/09/04,13:30,0.943,1.491,0.970,1.777,1.231,0.513,0.941,0.865,��쓌,6.5,��
2017/09/04,13:40,0.942,1.492,0.970,1.777,1.230,0.513,0.941,0.866,��쓌,7.7,��
2017/09/04,13:50,0.945,1.492,0.968,1.776,1.231,0.515,0.942,0.865,��쓌,6.9,��
2017/09/04,14:00,0.944,1.495,0.969,1.777,1.234,0.512,0.942,0.867,��쓌,6.7,��
2017/09/04,14:10,0.943,1.493,0.969,1.780,1.231,0.514,0.942,0.866,��쓌,8.0,��
2017/09/04,14:20,0.945,1.493,0.972,1.775,1.232,0.515,0.943,0.866,��,8.3,��
2017/09/04,14:30,0.944,1.492,0.968,1.777,1.236,0.515,0.940,0.866,��쓌,9.3,��
2017/09/04,14:40,0.943,1.497,0.970,1.775,1.234,0.514,0.942,0.867,��쓌,9.2,��
2017/09/04,14:50,0.946,1.493,0.971,1.779,1.232,0.517,0.942,0.867,��,7.1,��
2017/09/04,15:00,0.945,1.496,0.970,1.779,1.237,0.516,0.941,0.868,��쓌,7.4,��
2017/09/04,15:10,0.947,1.496,0.972,1.775,1.232,0.515,0.942,0.865,��쓌,7.5,��
2017/09/04,15:20,0.945,1.500,0.970,1.776,1.233,0.516,0.943,0.866,��쓌,8.5,��
2017/09/04,15:30,0.944,1.495,0.970,1.776,1.234,0.516,0.942,0.867,��쓌,8.4,��
2017/09/04,15:40,0.944,1.501,0.972,1.778,1.233,0.514,0.939,0.868,��쓌,7.8,��
2017/09/04,15:50,0.944,1.498,0.972,1.776,1.235,0.514,0.941,0.867,��,7.5,��
2017/09/04,16:00,0.944,1.497,0.969,1.778,1.238,0.514,0.943,0.866,��쓌,7.5,��
2017/09/04,16:10,0.946,1.498,0.971,1.778,1.231,0.514,0.943,0.864,��,7.2,��
2017/09/04,16:20,0.945,1.498,0.972,1.776,1.234,0.512,0.941,0.867,��,7.9,��
2017/09/04,16:30,0.945,1.497,0.971,1.779,1.233,0.514,0.939,0.865,��,7.7,��
2017/09/04,16:40,0.944,1.496,0.971,1.777,1.232,0.514,0.942,0.867,��,6.3,��
2017/09/04,16:50,0.944,1.500,0.969,1.780,1.236,0.515,0.942,0.867,��,6.6,��
2017/09/04,17:00,0.946,1.499,0.970,1.778,1.235,0.513,0.941,0.867,��,6.4,��
2017/09/04,17:10,0.944,1.506,0.970,1.779,1.234,0.515,0.942,0.867,��,6.6,��
2017/09/04,17:20,0.944,1.505,0.972,1.781,1.235,0.514,0.941,0.867,��,6.5,��
2017/09/04,17:30,0.944,1.497,0.972,1.779,1.236,0.515,0.942,0.870,��,7.1,��
2017/09/04,17:40,0.945,1.497,0.974,1.779,1.237,0.514,0.943,0.867,��,7.4,��
2017/09/04,17:50,0.944,1.499,0.973,1.781,1.235,0.513,0.942,0.871,��,7.1,��
2017/09/04,18:00,0.942,1.497,0.974,1.782,1.232,0.514,0.944,0.871,��,7.1,��
2017/09/04,18:10,0.943,1.500,0.973,1.780,1.237,0.515,0.943,0.870,��,7.3,��
2017/09/04,18:20,0.943,1.499,0.975,1.780,1.239,0.516,0.942,0.867,��,7.5,��
2017/09/04,18:30,0.944,1.501,0.975,1.779,1.236,0.514,0.944,0.870,��,6.7,��
2017/09/04,18:40,0.946,1.501,0.976,1.778,1.239,0.514,0.943,0.869,��,6.5,��
2017/09/04,18:50,0.944,1.504,0.976,1.777,1.237,0.516,0.941,0.868,��,5.6,��
2017/09/04,19:00,0.941,1.502,0.976,1.781,1.238,0.515,0.943,0.869,��쐼,4.8,��
2017/09/04,19:10,0.944,1.501,0.974,1.778,1.239,0.515,0.945,0.869,��쐼,5.1,��
2017/09/04,19:20,0.944,1.500,0.973,1.781,1.239,0.515,0.943,0.870,��쐼,4.8,��
2017/09/04,19:30,0.946,1.504,0.976,1.779,1.238,0.517,0.943,0.869,��쐼,4.8,��
2017/09/04,19:40,0.946,1.500,0.977,1.781,1.238,0.516,0.942,0.869,��쐼,3.8,��
2017/09/04,19:50,0.948,1.502,0.974,1.777,1.237,0.516,0.943,0.869,��쐼,3.5,��
2017/09/04,20:00,0.947,1.501,0.973,1.777,1.238,0.515,0.944,0.869,��쐼,3.8,��
2017/09/04,20:10,0.946,1.501,0.973,1.779,1.238,0.514,0.943,0.869,��쐼,4.0,��
2017/09/04,20:20,0.946,1.502,0.973,1.777,1.238,0.514,0.946,0.869,��쐼,3.5,��
2017/09/04,20:30,0.948,1.503,0.972,1.778,1.237,0.514,0.943,0.869,��쐼,2.6,��
2017/09/04,20:40,0.947,1.501,0.975,1.780,1.240,0.514,0.943,0.869,��쐼,1.9,��
2017/09/04,20:50,0.948,1.501,0.974,1.778,1.239,0.515,0.944,0.869,��,2.2,��
2017/09/04,21:00,0.947,1.500,0.974,1.778,1.237,0.514,0.944,0.869,��쐼,2.3,��
2017/09/04,21:10,0.949,1.501,0.972,1.779,1.240,0.515,0.943,0.867,��쐼,2.5,��
2017/09/04,21:20,0.945,1.500,0.972,1.779,1.239,0.514,0.944,0.869,��쐼,2.3,��
2017/09/04,21:30,0.945,1.498,0.972,1.778,1.236,0.515,0.943,0.868,�쐼,2.6,��
2017/09/04,21:40,0.947,1.496,0.972,1.775,1.236,0.514,0.943,0.869,�쐼,2.9,��
2017/09/04,21:50,0.947,1.499,0.973,1.777,1.238,0.514,0.942,0.868,�쐼,3.6,��
2017/09/04,22:00,0.945,1.498,0.975,1.777,1.237,0.514,0.944,0.869,��쐼,3.1,��
2017/09/04,22:10,0.944,1.500,0.974,1.779,1.238,0.516,0.944,0.870,��쐼,2.6,��
2017/09/04,22:20,0.945,1.500,0.973,1.779,1.236,0.514,0.943,0.867,��쐼,2.3,��
2017/09/04,22:30,0.945,1.502,0.976,1.777,1.239,0.515,0.941,0.867,�쐼,2.2,��
2017/09/04,22:40,0.946,1.500,0.973,1.777,1.235,0.515,0.942,0.869,�쐼,1.5,��
2017/09/04,22:50,0.944,1.496,0.971,1.779,1.236,0.514,0.943,0.868,��쐼,1.5,��
2017/09/04,23:00,0.944,1.501,0.972,1.778,1.238,0.515,0.941,0.867,��쐼,2.5,��
2017/09/04,23:10,0.945,1.499,0.971,1.776,1.236,0.514,0.943,0.870,��쐼,2.8,��
2017/09/04,23:20,0.946,1.499,0.971,1.781,1.236,0.513,0.944,0.870,��쐼,2.6,��
2017/09/04,23:30,0.943,1.497,0.974,1.776,1.235,0.513,0.942,0.869,��쐼,2.5,��
2017/09/04,23:40,0.945,1.496,0.972,1.780,1.237,0.514,0.942,0.867,��,2.0,��
2017/09/04,23:50,0.944,1.499,0.971,1.777,1.236,0.514,0.942,0.866,��쐼,1.4,��
